This is the latest recevied weather packets stored in our database for station/object KC9GSD. If no packets are shown the sender has not sent any weather packets the latest 10 day(s).
| Time | Temp. | Humidity | Pressure | Rain* | Wind** | Luminosity | Snow |
|---|---|---|---|---|---|---|---|
| 1778158764 | 13.89° C | 97% | 1013 hPa | 0 mm | - | 64 W/m² | - |
| 1778158461 | 13.89° C | 97% | 1012.9 hPa | 1.27 mm | - | 67 W/m² | - |
| 1778158158 | 14.44° C | 97% | 1012.8 hPa | 1.27 mm | - | 82 W/m² | - |
| 1778157854 | 14.44° C | 97% | 1012.4 hPa | 0 mm | - | 66 W/m² | - |
| 1778157553 | 14.44° C | 97% | 1012.7 hPa | 0 mm | - | 51 W/m² | - |
| 1778157250 | 14.44° C | 97% | 1012.7 hPa | 0 mm | - | 35 W/m² | - |
| 1778156946 | 14.44° C | 97% | 1012.5 hPa | 0 mm | - | 28 W/m² | - |
| 1778156641 | 14.44° C | 97% | 1012.8 hPa | 0 mm | - | 24 W/m² | - |
| 1778156338 | 15° C | 97% | 1012.5 hPa | 0 mm | - | 34 W/m² | - |
| 1778156033 | 14.44° C | 97% | 1012 hPa | 0 mm | - | 44 W/m² | - |
| 1778155730 | 15° C | 98% | 1012.1 hPa | 0 mm | - | 48 W/m² | - |
| 1778155426 | 15° C | 98% | 1012.2 hPa | 0 mm | - | 54 W/m² | - |
| 1778155123 | 14.44° C | 98% | 1012 hPa | 0 mm | - | 56 W/m² | - |
| 1778154818 | 15° C | 98% | 1011.9 hPa | 0 mm | - | 32 W/m² | - |
| 1778154514 | 15° C | 98% | 1011.6 hPa | 0 mm | - | 31 W/m² | - |
| 1778154212 | 15° C | 98% | 1011.6 hPa | 0 mm | - | 34 W/m² | - |
| 1778153909 | 15° C | 98% | 1011.6 hPa | 0 mm | - | 25 W/m² | - |
| 1778153606 | 14.44° C | 98% | 1011.8 hPa | 0 mm | - | 15 W/m² | - |
| 1778153304 | 15° C | 98% | 1011.6 hPa | 0 mm | - | 20 W/m² | - |
| 1778153000 | 14.44° C | 98% | 1011.6 hPa | 0 mm | - | 16 W/m² | - |
| 1778152698 | 14.44° C | 98% | 1011.3 hPa | 1.78 mm | - | 12 W/m² | - |
| 1778152394 | 14.44° C | 98% | 1011.2 hPa | 4.83 mm | - | 7 W/m² | - |
| 1778152091 | 14.44° C | 98% | 1011.2 hPa | 7.11 mm | - | 4 W/m² | - |
| 1778151787 | 14.44° C | 98% | 1011.5 hPa | 11.94 mm | - | 2 W/m² | - |
| 1778151484 | 14.44° C | 98% | 1011.1 hPa | 19.81 mm | - | 1 W/m² | - |
* Rain latest hour (hover to see other rain measurements)
** Current wind speed in m/s (hover to see current wind gust speed)